Regional Weather Roundup
Issued by NWS

Home | Current Version | Previous Version | Text Only | Print | Product List | Glossary Off
Versions: 1 2 3 4 5 6 7 8 9 10 11 12 13 14 15 16 17 18 19 20 21 22 23 24 25 26 27 28 29 30 31 32 33 34 35 36 37 38 39 40 41 42 43 44 45 46 47 48 49 50

000
ASUS43 KIND 271309
RWRIN

WEATHER ROUNDUP FOR INDIANA
NATIONAL WEATHER SERVICE INDIANAPOLIS IN
900 AM EDT FRI MAY 27 2016

NOTE: "FAIR" INDICATES FEW OR NO CLOUDS BELOW 12,000 FEET WITH NO
SIGNIFICANT WEATHER AND/OR OBSTRUCTIONS TO VISIBILITY.

* - STATION DOES NOT REPORT WEATHER SUCH AS PRECIPITATION OR FOG.

+ - STATION NOT QUALITY CONTROLLED BY THE NATIONAL WEATHER SERVICE.
    USE DATA WITH CAUTION...ESPECIALLY DEWPOINT AND RELATIVE
    HUMIDITY OBSERVATIONS.

INZ001>003-010>013-019-020-271400-
NORTHWEST INDIANA

CITY           SKY/WX    TMP DP  RH WIND       PRES   REMARKS
GARY /AIRPORT/ PTSUNNY   72  70  94 S7        29.92S
KNOX *+        MOSUNNY   68  57  68 S13       29.95S
LA PORTE +     CLOUDY    72  67  83 S13G18    29.95S
MICHIGAN CITY+ CLOUDY    68  64  88 S7        29.94S
MONTICELLO +   CLOUDY    67  61  81 S7        29.96S
RENSSELAER +   CLOUDY    68  64  88 S9        29.95F
VALPARAISO     MOSUNNY   69  63  81 S13       29.94S

$$

LMZ046-743>745-271400-
SOUTHERN LAKE MICHIGAN

STATION/POSITION TIME  TEMP    WIND        PRES    WAVE
                       AIR SEA DIR/SP/G            HT
                 (UTC) (F)     (DEG/KT/KT) (MB)    (FT)
MICHIGAN CITY    1200   67     140/  9/ 11   N/A
5NW MICH CITY    1300   64 58  180/  8/ 10   N/A     1

$$

INZ004-005-014>016-021>024-271400-
NORTH CENTRAL INDIANA

CITY           SKY/WX    TMP DP  RH WIND       PRES   REMARKS
ELKHART        CLOUDY    68  66  94 S9        29.97R
GOSHEN         CLOUDY    71  62  73 S13       29.97R
LOGANSPORT +   CLOUDY    68  63  83 S12       29.99R
PERU/GRISSOM   CLOUDY    69  64  86 S13       29.98R
ROCHESTER +    CLOUDY    70  64  83 S7        29.98R
SOUTH BEND     PTSUNNY   70  63  78 S8        29.95R
WARSAW +       CLOUDY    68  61  77 SW9       29.98R

$$

INZ006>009-017-018-025>027-271400-
NORTHEAST INDIANA

CITY           SKY/WX    TMP DP  RH WIND       PRES   REMARKS
ANGOLA *+        N/A     70  63  78 SE5       29.98R
AUBURN +       SUNNY     70  61  73 S6        30.00S
FORT WAYNE     PTSUNNY   71  63  75 S13       30.00R
HUNTINGTON +   MOSUNNY   69  63  80 SW8       30.00S

$$

INZ028-029-035-036-043>045-051>053-271400-
WEST CENTRAL INDIANA

CITY           SKY/WX    TMP DP  RH WIND       PRES   REMARKS
CRAWFORDSVL +  CLOUDY    67  67 100 S9        29.97F
GREENCASTLE +  PTSUNNY   64  64 100 S6        29.99F
LAFAYETTE      CLOUDY    68  63  84 CALM      29.96S
TERRE HAUTE    MOSUNNY   69  64  84 S8        29.98R

$$

INZ030>032-037>040-046>048-054>057-064-065-271400-
CENTRAL INDIANA

CITY           SKY/WX    TMP DP  RH WIND       PRES   REMARKS
ANDERSON       MOSUNNY   66  64  94 S6        30.03
CP ATTERBURY + PTSUNNY   68  63  83 E5        30.01S
COLUMBUS       MOSUNNY   66  66 100 S7        30.02S
FRANKFORT +      N/A     68  67  98 S5        30.00S
GREENWOOD *+   CLOUDY    68  66  94 S9        30.02S
INDIANAPOLIS   PTSUNNY   67  64  90 S9        29.99S
-EAGLE CREEK   CLOUDY    69  63  81 SE5       29.99F
KOKOMO *+      CLOUDY    68  61  77 S9        29.99S
MARION +       CLOUDY    67  63  85 S8        30.01S
SHELBYVILLE    CLOUDY    70  64  81 S7        30.01S
ZIONSVILLE +   MOSUNNY   67  63  87 S6        30.01S

$$

INZ033-034-041-042-049-050-058-059-271400-
EAST CENTRAL INDIANA

CITY           SKY/WX    TMP DP  RH WIND       PRES   REMARKS
MUNCIE         PTSUNNY   70  62  76 SW8       30.02R

$$

INZ060-061-067>069-081>083-085>088-271400-
SOUTHWEST INDIANA

CITY           SKY/WX    TMP DP  RH WIND       PRES   REMARKS
EVANSVILLE     CLOUDY    71  64  78 SE9       29.98S
HUNTINGBURG *+ CLOUDY    70  64  83 S6        30.00S
WASHINGTON +   CLOUDY    68  68  99 SE7       29.98F

$$

INZ062-063-066-070>080-084-089>092-271400-
SOUTH CENTRAL AND SOUTHEAST INDIANA

CITY           SKY/WX    TMP DP  RH WIND       PRES   REMARKS
BEDFORD +      CLOUDY    68  68 100 SE5       30.01R
BLOOMINGTON    CLOUDY    68  64  87 SE8       30.00R
MADISON *+     MOSUNNY   68  63  83 SE5       30.05F
NORTH VERNON + MOSUNNY  N/A N/A N/A CALM      30.03
SEYMOUR +      PTSUNNY   70  64  83 SE9       30.00F

$$





USA.gov is the U.S. government's official web portal to all federal, state and local government web resources and services.